This is the latest recevied weather packets stored in our database for station/object IU0KRR-10. If no packets are shown the sender has not sent any weather packets the latest 10 day(s).
| Time | Temp. | Humidity | Pressure | Rain* | Wind** | Luminosity | Snow |
|---|---|---|---|---|---|---|---|
| 1777675359 | 14.44° C | 24% | 878.9 hPa | - | - | - | - |
| 1777674459 | 14.44° C | 24% | 878.8 hPa | - | - | - | - |
| 1777673559 | 14.44° C | 24% | 878.7 hPa | - | - | - | - |
| 1777672659 | 14.44° C | 23% | 878.6 hPa | - | - | - | - |
| 1777671758 | 14.44° C | 22% | 878.4 hPa | - | - | - | - |
| 1777670858 | 14.44° C | 20% | 878.4 hPa | - | - | - | - |
| 1777669958 | 14.44° C | 20% | 878.2 hPa | - | - | - | - |
| 1777669058 | 15° C | 19% | 878.2 hPa | - | - | - | - |
| 1777668192 | 15° C | 19% | 878.1 hPa | - | - | - | - |
| 1777668158 | 15° C | 19% | 878.1 hPa | - | - | - | - |
| 1777667258 | 15° C | 19% | 878.2 hPa | - | - | - | - |
| 1777666358 | 15° C | 19% | 878.2 hPa | - | - | - | - |
| 1777665458 | 15° C | 20% | 878.1 hPa | - | - | - | - |
| 1777664557 | 15° C | 21% | 877.7 hPa | - | - | - | - |
| 1777663657 | 15.56° C | 21% | 877.6 hPa | - | - | - | - |
| 1777662757 | 16.11° C | 22% | 877.5 hPa | - | - | - | - |
| 1777661857 | 16.11° C | 23% | 877.4 hPa | - | - | - | - |
| 1777660957 | 16.67° C | 23% | 877.3 hPa | - | - | - | - |
| 1777660056 | 17.22° C | 23% | 877.3 hPa | - | - | - | - |
| 1777659156 | 17.78° C | 22% | 877.4 hPa | - | - | - | - |
| 1777658256 | 18.89° C | 21% | 877.2 hPa | - | - | - | - |
| 1777657355 | 20° C | 20% | 877.2 hPa | - | - | - | - |
| 1777656455 | 21.11° C | 20% | 877.2 hPa | - | - | - | - |
| 1777655555 | 21.11° C | 20% | 877 hPa | - | - | - | - |
| 1777654655 | 21.11° C | 20% | 877.3 hPa | - | - | - | - |
* Rain since midnight (hover to see other rain measurements)
** Current wind speed in m/s (hover to see current wind gust speed)